Location: Asarope
(8.2500°N, 4.4833°E)
Time: 16:16:52
(UTC+00:00)

Envisat - Visible Passes

Search period start: 23 July 2021 00:00
Search period end: 02 August 2021 00:00
Orbit: 764 x 766 km, 98.1° (Epoch: 22 July)

Date Brightness Start Highest point End Pass type
(mag) Time Alt. Az. Time Alt. Az. Time Alt. Az.
23 Jul 5.4 03:51:58 10° NE 03:55:39 20° E 03:59:20 10° SSE visible
24 Jul 3.0 04:52:41 10° N 04:57:43 68° WNW 05:02:45 10° SSW visible
25 Jul 4.2 04:16:12 10° NNE 04:20:58 41° E 04:25:44 10° S visible
26 Jul 5.7 03:41:24 10° ENE 03:44:10 15° E 03:46:57 10° SE visible
27 Jul 3.0 04:41:11 10° NNE 04:46:16 88° ESE 04:51:21 10° SSW visible
28 Jul 4.8 04:05:05 10° NE 04:09:30 30° E 04:13:55 10° SSE visible
29 Jul 6.0 03:31:59 10° E 03:32:42 10° E 03:33:25 10° ESE visible
29 Jul 3.4 05:06:44 10° N 05:11:31 44° WNW 05:16:20 10° SSW visible
30 Jul 3.4 04:29:47 10° NNE 04:34:48 64° ESE 04:39:49 10° S visible
31 Jul 5.2 03:54:07 10° NE 03:58:01 22° E 04:01:55 10° SSE visible
01 Aug 3.0 04:55:06 10° N 05:00:05 61° WNW 05:05:05 10° SSW visible
